Regional Weather Roundup
Issued by NWS State College, PA

Home | Current Version | Previous Version | Text Only | Print | Product List | Glossary Off
Versions: 1 2 3 4 5 6 7 8 9 10 11 12 13 14 15 16 17 18 19 20 21 22 23 24 25 26 27 28 29 30 31 32 33 34 35 36 37 38 39 40 41 42 43 44 45 46 47 48 49 50

000
ASUS41 KCTP 251903
RWRCTP

REGIONAL WEATHER ROUNDUP
NATIONAL WEATHER SERVICE STATE COLLEGE PA
300 PM EDT THU MAY 25 2017

Note: "fair" indicates few or no clouds below 12,000 feet with no
significant weather and/or obstructions to visibility.

* = STATION THAT DOES NOT REPORT PRECIPITATION /E.G. RAIN...SNOW...ETC/
    THUNDER OR FOG.

PAZ002>004-007>009-013>016-020>023-029>032-252000-
WESTERN PENNSYLVANIA

CITY           SKY/WX    TMP DP  RH WIND       PRES   REMARKS
ERIE           CLOUDY    59  56  89 N5        29.46F
MEADVILLE      LGT RAIN  58  58 100 S8        29.48S
FRANKLIN*      PTSUNNY   63  55  77 W8        29.49F
NEW CASTLE     MOCLDY    65  55  70 SW3       29.48S
BEAVER COUNTY  PTSUNNY   68  57  68 SW6       29.48F
BUTLER*        CLOUDY    63  55  77 SW5       29.49S
PITTSBURGH INT PTSUNNY   65  53  65 S6        29.46F
PITTSBURGH     PTSUNNY   66  51  58 S10G16    29.47F
INDIANA*       CLOUDY    64  57  77 VRB5      29.52F
LATROBE        PTSUNNY   64  55  72 SW12      29.51F
WASHINGTON CO* CLOUDY    63  54  72 W7        29.50S
$$

PAZ004>006-010>012-017>019-024>028-033>037-041-042-045-046-049>053-252000-
CENTRAL PENNSYLVANIA

CITY           SKY/WX    TMP DP  RH WIND       PRES   REMARKS
BRADFORD       LGT RAIN  57  56  96 VRB7      29.51S FOG
DUBOIS         CLOUDY    59  53  80 SW5       29.50S
CLEARFIELD     CLOUDY    62  57  83 VRB5      29.51F
JOHNSTOWN      CLOUDY    59  56  89 NW6       29.50F
ALTOONA        CLOUDY    65  55  70 CALM      29.50F
STATE COLLEGE  CLOUDY    63  55  77 CALM      29.51F
WILLIAMSPORT   CLOUDY    63  59  87 SE5       29.50F
SELINSGROVE    CLOUDY    62  59  90 E5        29.51F
FT INDIANTOWN  CLOUDY    61  61 100 E3        29.51F FOG
CAPITAL CITY   CLOUDY    64  57  78 CALM      29.50F
HARRISBURG     CLOUDY    63  60  90 W3        29.49F
YORK           CLOUDY    64  60  87 CALM      29.50F
$$

PAZ038>040-043-044-047-048-054-055-060>062-067>071-252000-
EASTERN PENNSYLVANIA

CITY           SKY/WX    TMP DP  RH WIND       PRES   REMARKS
SCRANTON       CLOUDY    65  56  72 SE9G20    29.50F
MOUNT POCONO   LGT RAIN  54  54 100 E14       29.56F FOG
ALLENTOWN      CLOUDY    63  58  83 E10       29.52F
QUAKERTOWN*    CLOUDY    59  57  94 E7G18     29.53F
READING        CLOUDY    63  60  90 CALM      29.50F
LANCASTER      LGT RAIN  63  62  97 CALM      29.50F FOG
COATESVILLE    CLOUDY    63  61  94 E7        29.52S
POTTSTOWN      CLOUDY    61  58  90 NE7       29.52F
BLUE BELL      CLOUDY    61  59  94 E12       29.52F
DOYLESTOWN     CLOUDY    60  59  96 VRB5      29.51F
WILLOW GROVE   NOT AVBL
NORTH PHILA    CLOUDY    63  60  90 E13       29.53F
PHILADELPHIA   CLOUDY    65  61  87 NE10      29.50F
$$




USA.gov is the U.S. government's official web portal to all federal, state and local government web resources and services.